This is the latest recevied weather packets stored in our database for station/object KI7YRV. If no packets are shown the sender has not sent any weather packets the latest 10 day(s).
| Time | Temp. | Humidity | Pressure | Rain* | Wind** | Luminosity | Snow |
|---|---|---|---|---|---|---|---|
| 1777669225 | 18.33° C | 26% | 1023.1 hPa | 0 mm | - | - | - |
| 1777662029 | 16.67° C | 27% | 1023.5 hPa | 0 mm | - | - | - |
| 1777660223 | 15° C | 29% | 1023.7 hPa | 0 mm | - | - | - |
| 1777655422 | 14.44° C | 32% | 1024.2 hPa | 0 mm | - | - | - |
| 1777654231 | 13.33° C | 34% | 1024.1 hPa | 0 mm | - | - | - |
| 1777651830 | 12.22° C | 38% | 1024.2 hPa | 0 mm | - | - | - |
| 1777650046 | 10.56° C | 39% | 1024.3 hPa | 0 mm | - | - | - |
| 1777648817 | 9.44° C | 45% | 1024.3 hPa | 0 mm | - | - | - |
| 1777647024 | 7.22° C | 53% | 1024.4 hPa | 0 mm | - | - | - |
| 1777643420 | 3.33° C | 64% | 1024.3 hPa | 0 mm | - | - | - |
| 1777642229 | 2.22° C | 68% | 1024.2 hPa | 0 mm | - | - | - |
| 1777641615 | 1.67° C | 70% | 1024.2 hPa | 0 mm | - | - | - |
| 1777641019 | 1.67° C | 71% | 1024.2 hPa | 0 mm | - | - | - |
| 1777639220 | 0.56° C | 74% | 1023.7 hPa | 0 mm | - | - | - |
| 1777635623 | -1.11° C | 79% | 1023.7 hPa | 0 mm | - | - | - |
| 1777635028 | -0.56° C | 77% | 1023.7 hPa | 0 mm | - | - | - |
| 1777630843 | 0.56° C | 74% | 1023.5 hPa | 0 mm | - | - | - |
| 1777624826 | 0° C | 73% | 1023.6 hPa | 0 mm | - | - | - |
| 1777621216 | 1.67° C | 66% | 1023.7 hPa | 0 mm | - | - | - |
| 1777616440 | 4.44° C | 47% | 1023.7 hPa | 0 mm | - | - | - |
| 1777610453 | 6.11° C | 42% | 1023.7 hPa | 0 mm | - | - | - |
| 1777607432 | 6.67° C | 42% | 1023.5 hPa | 0 mm | - | - | - |
| 1777601422 | 8.89° C | 40% | 1022.6 hPa | 0 mm | - | - | - |
| 1777596621 | 12.22° C | 34% | 1022.3 hPa | 0 mm | - | - | - |
| 1777593029 | 13.89° C | 30% | 1022.3 hPa | 0 mm | - | - | - |
* Rain latest hour (hover to see other rain measurements)
** Current wind speed in m/s (hover to see current wind gust speed)